NEE-02 KRYSAOR

Last updated on Mon Sep 21 2026 00:03:44 GMT+0000 (Coordinated Universal Time)

1 39441U 13066AB 26263.37165942 .00001138 00000+0 12859-3 0 9993 2 39441 97.8943 201.9509 0066992 116.7917 244.0172 14.86919316690343
UTC large
Height (km)
Speed (km/s)
/
Latitude / Longitude
Inclination (degrees)
Orbital Period (minutes)
Azimuth
Elevation
Range (km)
Doppler Factor

Next 0 passes for location: London (51.5072 / 0.1276)

No passes found over London.
NEE-02 KRYSAOR